Regional Weather Roundup
Issued by NWS Spokane, WA

Home | Current Version | Previous Version | Text Only | Print | Product List | Glossary On
Versions: 1 2 3 4 5 6 7 8 9 10 11 12 13 14 15 16 17 18 19 20 21 22 23 24 25 26 27 28 29 30 31 32 33 34 35 36 37 38 39 40 41 42 43 44 45 46 47 48 49 50
762
NZUS01 KOTX 260310
RWROTX

Eastern Washington/Northern Idaho Roundup
National Weather Service, Spokane WA
800 PM PDT THU AUG 25 2016

Note: "fair" indicated few or no clouds below 12,000 feet with no
significant weather and/or obstructions to visibility.

...Northeast Washington and Northern Idaho Panhandle...

CITY           SKY/WX    TMP DP  RH WIND       PRES   REMARKS
Spokane Intl   MOCLDY    78  35  21 NE5       30.03S
Spokane Downto MOCLDY    74  37  26 N3        30.02S
Coeur d Alene  MOCLDY    70  37  30 N5        30.01S
Deer Park      CLOUDY    70  37  29 CALM      30.03S
Sandpoint      MOCLDY    63  46  55 CALM      30.03F
Bonners Ferry    N/A     68  41  37 CALM      30.04S

...Southeast Washington and southern Idaho Panhandle...

CITY           SKY/WX    TMP DP  RH WIND       PRES   REMARKS
Walla Walla    CLEAR     74  29  19 NE10      29.96R
Pullman/Moscow PTCLDY    69  32  25 N7        30.04S
Lewiston       CLEAR     81  33  17 CALM      29.95S
Lowell           N/A     64  47  53 CALM      29.98R
Grangeville    FAIR      66  32  28 CALM      30.04S

...Columbia Basin...

CITY           SKY/WX    TMP DP  RH WIND       PRES   REMARKS
Ephrata        CLEAR     78  43  28 SW8       29.97S
Moses Lake     CLEAR     80  47  31 SW7       29.97F
Pasco          CLEAR     75  49  39 N8        29.93S
Richland       CLEAR     78  43  28 NW3       29.93S
Hermiston      CLEAR     79  40  24 CALM      29.93S
Pendleton      CLEAR     72  33  24 N10       29.97S

...East Slopes Cascades...

CITY           SKY/WX    TMP DP  RH WIND       PRES   REMARKS
The Dalles     CLEAR     82  43  25 E7        29.90R
Yakima         CLEAR     79  44  28 CALM      29.98R
Ellensburg     PTCLDY    74  44  34 E6        30.00S
Stampede Pass  PTCLDY    64  46  52 VRB3      30.14F
Wenatchee      PTCLDY    75  45  34 E8        29.96F
Omak           CLEAR     77  43  29 N9        29.98S
Sunnyside        N/A     68  51  53 NE7       29.96S

...Southern British Columbia...

CITY           SKY/WX    TMP DP  RH WIND       PRES   REMARKS
Penticton      MOCLDY    77  55  47 N6        29.99S
Castlegar      CLOUDY    75  46  35 N6        30.01R
Cranbrook      LGT RAIN  63  46  55 NW10G23   30.15R
Osoyoos          N/A     81  50  34 NW6         N/A
Creston          N/A     66  48  52 NE3         N/A

...Western Montana...

CITY           SKY/WX    TMP DP  RH WIND       PRES   REMARKS
Kalispell      MOCLDY    64  42  44 N18       30.11R
Libby            N/A     66  36  32 CALM      30.07R
Missoula       CLEAR     67  33  28 N10G18    30.09R

...Neighboring Cities...

CITY           SKY/WX    TMP DP  RH WIND       PRES   REMARKS
Seattle        PTCLDY    83  49  30 N9        29.97F
Portland       PTCLDY    89  47  23 N7        29.88S
Boise          CLEAR     75  37  25 W9        29.97S
Great Falls    CLOUDY    58  36  43 CALM      30.15R



USA.gov is the U.S. government's official web portal to all federal, state and local government web resources and services.